Overview Statistics Trail Chart Weather Telemetry Raw packets
 

This is the latest recevied weather packets stored in our database for station/object KN6WGU. If no packets are shown the sender has not sent any weather packets the latest 10 day(s).

<< 79 80 81 82 83 84 85 >>
Time Temp. Humidity Pressure Rain* Wind** Luminosity Snow
1788037827 27.22° C 54% 1013.7 hPa 0 mm - 121 W/m² -
1788037521 27.22° C 59% 1013.8 hPa 0 mm - 130 W/m² -
1788037221 26.67° C 56% 1013.7 hPa 0 mm - 138 W/m² -
1788036916 27.22° C 56% 1013.8 hPa 0 mm - 139 W/m² -
1788036613 26.67° C 56% 1014 hPa 0 mm - 135 W/m² -
1788036309 26.67° C 60% 1013.8 hPa 0 mm - 153 W/m² -
1788036003 27.22° C 55% 1014 hPa 0 mm - 168 W/m² -
1788035703 27.22° C 58% 1014 hPa 0 mm - 295 W/m² -
1788035398 26.67° C 55% 1014 hPa 0 mm - 269 W/m² -
1788035093 26.67° C 57% 1014 hPa 0 mm - 210 W/m² -
1788034789 26.67° C 58% 1014.1 hPa 0 mm - 199 W/m² -
1788034486 27.22° C 56% 1014.5 hPa 0 mm - 184 W/m² -
1788034182 27.78° C 53% 1014.3 hPa 0 mm - 178 W/m² -
1788033880 28.33° C 51% 1014.4 hPa 0 mm - 296 W/m² -
1788033580 28.89° C 52% 1014.4 hPa 0 mm - 374 W/m² -
1788033274 28.33° C 55% 1014.3 hPa 0 mm - 514 W/m² -
1788032971 28.33° C 52% 1014.3 hPa 0 mm - 358 W/m² -
1788032670 28.89° C 51% 1014.5 hPa 0 mm - 539 W/m² -
1788032365 28.89° C 49% 1014.4 hPa 0 mm - 584 W/m² -
1788032060 28.33° C 56% 1014.4 hPa 0 mm - 622 W/m² -
1788031755 27.78° C 56% 1014.6 hPa 0 mm - 572 W/m² -
1788031450 27.78° C 55% 1014.7 hPa 0 mm - 205 W/m² -
1788031157 29.44° C 50% 1014.5 hPa 0 mm - 176 W/m² -
1788030843 28.89° C 51% 1014.3 hPa 0 mm - 651 W/m² -
1788030537 30° C 48% 1014.4 hPa 0 mm - 570 W/m² -

* Rain latest hour (hover to see other rain measurements)
** Current wind speed in m/s (hover to see current wind gust speed)